N3WGC-14 Weather Reports


time (UTC)temp
C
wind
direction
speed
KPH
gust
KPH
rain 1hr
cm
rain 24hr
cm
rain mn
cm
humidity
%
barometer
mb
20260505194903 27 248 4.8 12.9 0.00 0.00 0.00 53 1010.0
20260505194403 27 89 4.8 14.5 0.00 0.00 0.00 52 1010.0
20260505193903 27 113 4.8 22.5 0.00 0.00 0.00 53 1010.1
20260505193402 27 309 4.8 8.0 0.00 0.00 0.00 52 1010.2
20260505192902 27 140 4.8 11.3 0.00 0.00 0.00 51 1010.2
20260505192402 27 225 11.3 19.3 0.00 0.00 0.00 52 1010.2
20260505191902 27 247 8.0 11.3 0.00 0.00 0.00 51 1010.4
20260505191402 27 225 4.8 12.9 0.00 0.00 0.00 52 1010.4
20260505190902 27 178 4.8 11.3 0.00 0.00 0.00 51 1010.5
20260505190402 27 160 9.7 16.1 0.00 0.00 0.00 52 1010.5
20260505185902 27 180 8.0 12.9 0.00 0.00 0.00 52 1010.7
20260505185401 27 190 3.2 9.7 0.00 0.00 0.00 53 1010.8
20260505184901 27 156 8.0 27.4 0.00 0.00 0.00 53 1010.8
20260505184401 27 108 8.0 12.9 0.00 0.00 0.00 51 1010.9
20260505183901 27 132 4.8 8.0 0.00 0.00 0.00 52 1010.9
20260505183401 27 150 4.8 9.7 0.00 0.00 0.00 52 1011.0
20260505182900 27 154 3.2 9.7 0.00 0.00 0.00 52 1011.0
20260505182400 26 160 4.8 11.3 0.00 0.00 0.00 51 1011.1
20260505181900 26 212 4.8 16.1 0.00 0.00 0.00 52 1011.1
20260505181400 26 161 8.0 4.8 0.00 0.00 0.00 52 1011.3
20260505180900 26 148 8.0 14.5 0.00 0.00 0.00 52 1011.3
20260505180400 26 238 11.3 25.7 0.00 0.00 0.00 54 1011.4
20260505175900 26 115 4.8 16.1 0.00 0.00 0.00 53 1011.4
20260505175359 26 224 8.0 9.7 0.00 0.00 0.00 54 1011.4
20260505174859 26 236 4.8 16.1 0.00 0.00 0.00 54 1011.4
20260505174359 26 271 3.2 19.3 0.00 0.00 0.00 55 1011.4
20260505173859 26 182 3.2 8.0 0.00 0.00 0.00 55 1011.5
20260505173359 26 142 4.8 11.3 0.00 0.00 0.00 56 1011.5
20260505172859 25 124 9.7 14.5 0.00 0.00 0.00 55 1011.6
20260505172359 25 123 4.8 8.0 0.00 0.00 0.00 56 1011.6
20260505171858 25 201 4.8 14.5 0.00 0.00 0.00 58 1011.7
20260505171358 25 80 4.8 11.3 0.00 0.00 0.00 58 1011.7
20260505170858 25 115 4.8 4.8 0.00 0.00 0.00 59 1011.7
20260505170358 25 128 3.2 9.7 0.00 0.00 0.00 58 1011.9
20260505165858 25 141 3.2 8.0 0.00 0.00 0.00 60 1011.9
20260505165358 24 105 3.2 4.8 0.00 0.00 0.00 62 1011.9
20260505164857 24 108 4.8 4.8 0.00 0.00 0.00 59 1012.0
20260505164357 24 150 4.8 16.1 0.00 0.00 0.00 60 1012.1
20260505163857 24 111 3.2 11.3 0.00 0.00 0.00 60 1012.2
20260505163357 24 138 3.2 4.8 0.00 0.00 0.00 60 1012.2
20260505162857 23 327 4.8 14.5 0.00 0.00 0.00 60 1012.2
20260505162357 23 141 8.0 14.5 0.00 0.00 0.00 61 1012.2
20260505161857 23 227 3.2 16.1 0.00 0.00 0.00 60 1012.3
20260505161356 23 181 4.8 9.7 0.00 0.00 0.00 61 1012.3
20260505160856 23 127 1.6 4.8 0.00 0.00 0.00 62 1012.2
20260505160356 23 190 4.8 14.5 0.00 0.00 0.00 61 1012.3
20260505153355 23 114 4.8 12.9 0.00 0.00 0.00 61 1012.6
20260505152855 23 117 3.2 8.0 0.00 0.00 0.00 62 1012.6
20260505152355 23 97 3.2 4.8 0.00 0.00 0.00 61 1012.5
20260505151855 23 104 3.2 14.5 0.00 0.00 0.00 62 1012.6
20260505151355 23 205 4.8 14.5 0.00 0.00 0.00 61 1012.6
20260505150854 22 88 1.6 4.8 0.00 0.00 0.00 61 1012.6
20260505150354 22 113 8.0 19.3 0.00 0.00 0.00 62 1012.5
20260505140352 21 259 1.6 4.8 0.00 0.00 0.00 63 1012.5
20260505124850 20 213 1.6 4.8 0.00 0.00 0.00 64 1012.8
20260505124350 20 95 1.6 4.8 0.00 0.00 0.00 65 1012.8
20260505123850 20 284 0.0 3.2 0.00 0.00 0.00 66 1012.8
20260505123350 20 30 0.0 3.2 0.00 0.00 0.00 65 1012.7
20260505122850 20 255 1.6 3.2 0.00 0.00 0.00 65 1012.7
20260505122349 19 138 0.0 4.8 0.00 0.00 0.00 67 1012.5
20260505121849 18 253 0.0 1.6 0.00 0.00 0.00 70 1012.5
20260505121349 18 217 1.6 1.6 0.00 0.00 0.00 71 1012.5
20260505120849 18 222 3.2 9.7 0.00 0.00 0.00 70 1012.4
20260505120349 18 318 3.2 4.8 0.00 0.00 0.00 71 1012.4
20260505115849 18 222 3.2 4.8 0.00 0.00 0.00 71 1012.4
20260505115349 18 222 1.6 4.8 0.00 0.00 0.00 71 1012.3
20260505114848 18 113 3.2 3.2 0.00 0.00 0.00 70 1012.3
20260505114348 18 249 1.6 3.2 0.00 0.00 0.00 71 1012.3
20260505113848 18 244 1.6 4.8 0.00 0.00 0.00 71 1012.3
20260505113348 18 279 1.6 1.6 0.00 0.00 0.00 71 1012.3
20260505112848 17 275 3.2 4.8 0.00 0.00 0.00 71 1012.3
20260505112348 17 221 0.0 1.6 0.00 0.00 0.00 72 1012.2
20260505111848 17 0 1.6 8.0 0.00 0.00 0.00 72 1012.1
20260505111347 17 271 1.6 3.2 0.00 0.00 0.00 73 1012.0
20260505110847 17 355 1.6 4.8 0.00 0.00 0.00 74 1012.0
20260505110347 16 83 1.6 4.8 0.00 0.00 0.00 75 1011.9
20260505101846 16 7 1.6 3.2 0.00 0.00 0.00 77 1011.4
20260505101346 16 68 0.0 1.6 0.00 0.00 0.00 77 1011.5
20260505100845 16 132 1.6 3.2 0.00 0.00 0.00 77 1011.4
20260505100345 16 130 0.0 3.2 0.00 0.00 0.00 76 1011.4
20260505095845 16 68 0.0 3.2 0.00 0.00 0.00 76 1011.4
20260505095345 16 63 0.0 3.2 0.00 0.00 0.00 75 1011.4
20260505094845 16 63 1.6 4.8 0.00 0.00 0.00 75 1011.4
20260505094345 16 273 0.0 1.6 0.00 0.00 0.00 75 1011.3
20260505093844 16 274 0.0 4.8 0.00 0.00 0.00 75 1011.2
20260505093344 16 73 1.6 3.2 0.00 0.00 0.00 76 1011.2
20260505092844 16 89 3.2 4.8 0.00 0.00 0.00 76 1011.2
20260505092344 16 26 1.6 4.8 0.00 0.00 0.00 75 1011.2
20260505091844 16 128 0.0 8.0 0.00 0.00 0.00 75 1011.2
20260505091314 16 106 8.0 12.9 0.00 0.00 0.00 75 1011.2
20260505090814 16 93 3.2 4.8 0.00 0.00 0.00 75 1011.1
20260505090313 16 92 4.8 9.7 0.00 0.00 0.00 75 1011.1
20260505085813 16 221 0.0 1.6 0.00 0.00 0.00 74 1011.1
20260505085313 16 247 3.2 3.2 0.00 0.00 0.00 74 1011.2
20260505084813 16 90 1.6 4.8 0.00 0.00 0.00 74 1011.1
20260505084313 16 85 3.2 4.8 0.00 0.00 0.00 73 1011.2
20260505083813 16 93 0.0 3.2 0.00 0.00 0.00 73 1011.1
20260505083312 16 95 1.6 4.8 0.00 0.00 0.00 73 1011.1
20260505082812 16 274 1.6 3.2 0.00 0.00 0.00 73 1011.1
20260505082312 16 72 1.6 1.6 0.00 0.00 0.00 73 1011.0
20260505081812 16 70 1.6 3.2 0.00 0.00 0.00 74 1011.0
20260505081312 16 79 1.6 4.8 0.00 0.00 0.00 74 1011.1
20260505080812 16 42 0.0 1.6 0.00 0.00 0.00 74 1011.0
20260505080312 16 96 0.0 1.6 0.00 0.00 0.00 75 1011.0
20260505075811 16 92 1.6 4.8 0.00 0.00 0.00 75 1011.1
20260505075311 16 51 3.2 4.8 0.00 0.00 0.00 75 1011.0
20260505074811 16 81 0.0 4.8 0.00 0.00 0.00 75 1011.1
20260505074241 16 88 1.6 1.6 0.00 0.00 0.00 75 1011.1
20260505073741 17 133 1.6 4.8 0.00 0.00 0.00 74 1011.1
20260505073241 17 186 1.6 11.3 0.00 0.00 0.00 74 1011.1
20260505072741 17 281 1.6 4.8 0.00 0.00 0.00 74 1011.1
20260505072240 17 69 1.6 4.8 0.00 0.00 0.00 74 1011.2
20260505071740 17 124 3.2 4.8 0.00 0.00 0.00 74 1011.1
20260505071240 17 358 1.6 4.8 0.00 0.00 0.00 74 1011.1
20260505070740 17 78 0.0 9.7 0.00 0.00 0.00 74 1011.1
20260505070240 17 118 1.6 3.2 0.00 0.00 0.00 74 1011.1
20260505065740 17 86 4.8 4.8 0.00 0.00 0.00 74 1011.1
20260505065239 17 129 3.2 9.7 0.00 0.00 0.00 75 1011.1
20260505064739 17 108 1.6 3.2 0.00 0.00 0.00 74 1011.1
20260505064239 17 28 1.6 4.8 0.00 0.00 0.00 74 1011.1
20260505063739 17 145 1.6 8.0 0.00 0.00 0.00 74 1011.1
20260505063239 17 110 3.2 4.8 0.00 0.00 0.00 74 1011.1
20260505062739 17 80 3.2 4.8 0.00 0.00 0.00 75 1011.1
20260505062239 17 102 1.6 3.2 0.00 0.00 0.00 75 1011.0
20260505061738 17 77 1.6 3.2 0.00 0.00 0.00 75 1011.0
20260505061238 17 160 3.2 4.8 0.00 0.00 0.00 76 1011.1
20260505060738 17 96 1.6 3.2 0.00 0.00 0.00 76 1011.1
20260505060238 17 70 1.6 3.2 0.00 0.00 0.00 75 1011.0
20260505055738 17 99 0.0 4.8 0.00 0.00 0.00 75 1011.1
20260505055238 17 113 3.2 8.0 0.00 0.00 0.00 75 1011.1
20260505054738 17 331 0.0 1.6 0.00 0.00 0.00 75 1011.2
20260505054237 17 93 1.6 1.6 0.00 0.00 0.00 74 1011.2
20260505053737 17 106 4.8 8.0 0.00 0.00 0.00 74 1011.2
20260505053237 17 93 3.2 4.8 0.00 0.00 0.00 74 1011.2
20260505052737 17 256 1.6 3.2 0.00 0.00 0.00 74 1011.2
20260505052237 17 110 3.2 4.8 0.00 0.00 0.00 74 1011.1
20260505051737 17 106 3.2 4.8 0.00 0.00 0.00 74 1011.2
20260505051236 17 134 1.6 3.2 0.00 0.00 0.00 73 1011.2
20260505050736 17 113 3.2 4.8 0.00 0.00 0.00 73 1011.1
20260505050236 17 39 0.0 4.8 0.00 0.00 0.00 73 1011.2
20260505041735 17 83 0.0 1.6 0.00 0.00 0.00 73 1011.0
20260505041235 17 72 0.0 3.2 0.00 0.00 0.00 72 1011.0
20260505040734 17 82 1.6 4.8 0.00 0.00 0.00 72 1011.0
20260505040234 17 100 0.0 3.2 0.00 0.00 0.00 71 1010.9
20260505035734 18 117 1.6 3.2 0.00 0.00 0.00 71 1010.9
20260505035234 18 94 1.6 3.2 0.00 0.00 0.00 70 1010.9
20260505034734 18 11 1.6 3.2 0.00 0.00 0.00 70 1010.8
20260505034234 18 92 1.6 3.2 0.00 0.00 0.00 71 1010.9
20260505033734 18 94 0.0 3.2 0.00 0.00 0.00 71 1010.8
20260505033233 18 104 8.0 11.3 0.00 0.00 0.00 71 1010.9
20260505032733 18 131 3.2 4.8 0.00 0.00 0.00 71 1011.0
20260505032233 17 112 3.2 12.9 0.00 0.00 0.00 71 1011.0
20260505031733 18 124 0.0 1.6 0.00 0.00 0.00 70 1011.1
20260505031233 18 104 3.2 8.0 0.00 0.00 0.00 69 1011.0
20260505030733 18 100 3.2 4.8 0.00 0.00 0.00 69 1010.9
20260505030233 18 103 3.2 4.8 0.00 0.00 0.00 69 1010.8
20260505025732 18 100 8.0 8.0 0.00 0.00 0.00 69 1010.8
20260505025232 18 102 3.2 9.7 0.00 0.00 0.00 68 1010.8
20260505024732 18 105 3.2 4.8 0.00 0.00 0.00 68 1010.9
20260505024232 18 111 1.6 8.0 0.00 0.00 0.00 67 1011.0
20260505023732 18 104 3.2 4.8 0.00 0.00 0.00 67 1011.1
20260505023232 18 105 3.2 12.9 0.00 0.00 0.00 66 1011.1
20260505022731 18 100 3.2 4.8 0.00 0.00 0.00 66 1011.0
20260505022231 18 92 3.2 9.7 0.00 0.00 0.00 65 1011.0
20260505021731 18 100 3.2 4.8 0.00 0.00 0.00 64 1011.0
20260505021231 18 136 1.6 4.8 0.00 0.00 0.00 63 1010.9
20260505020731 18 87 3.2 4.8 0.00 0.00 0.00 62 1010.9
20260505020231 19 146 4.8 4.8 0.00 0.00 0.00 61 1010.9
20260505015731 19 112 3.2 4.8 0.00 0.00 0.00 59 1010.9
20260505015230 19 150 3.2 9.7 0.00 0.00 0.00 59 1010.9
20260505014730 19 105 1.6 8.0 0.00 0.00 0.00 59 1010.9
20260505014230 19 90 3.2 9.7 0.00 0.00 0.00 59 1010.9
20260505013730 19 98 1.6 8.0 0.00 0.00 0.00 58 1010.9
20260505013230 19 250 3.2 4.8 0.00 0.00 0.00 58 1010.8
20260505012730 19 57 3.2 4.8 0.00 0.00 0.00 58 1010.8
20260505012230 19 44 1.6 1.6 0.00 0.00 0.00 58 1010.8
20260505011729 19 48 1.6 3.2 0.00 0.00 0.00 58 1010.8
20260505011229 19 103 1.6 4.8 0.00 0.00 0.00 57 1010.7
20260505010729 19 99 1.6 1.6 0.00 0.00 0.00 57 1010.5
20260505010229 19 180 1.6 1.6 0.00 0.00 0.00 57 1010.5
20260505005729 19 179 1.6 3.2 0.00 0.00 0.00 57 1010.5
20260505005229 19 276 1.6 3.2 0.00 0.00 0.00 57 1010.5
20260505004728 19 115 1.6 3.2 0.00 0.00 0.00 58 1010.6
20260505004228 19 115 1.6 3.2 0.00 0.00 0.00 58 1010.5
20260505003728 20 109 1.6 8.0 0.00 0.00 0.00 58 1010.5
20260505003228 20 99 3.2 9.7 0.00 0.00 0.00 57 1010.4
20260505002728 20 93 1.6 3.2 0.00 0.00 0.00 57 1010.4
20260505002228 20 86 1.6 4.8 0.00 0.00 0.00 56 1010.4
20260505001728 20 113 3.2 3.2 0.00 0.00 0.00 55 1010.3
20260505001227 20 120 3.2 4.8 0.00 0.00 0.00 54 1010.4
20260505000727 20 102 3.2 8.0 0.00 0.00 0.00 53 1010.3
20260505000227 20 110 4.8 8.0 0.00 0.00 0.00 52 1010.3
20260504235727 20 96 4.8 4.8 0.00 0.00 0.00 52 1010.5
20260504235227 20 110 1.6 4.8 0.00 0.00 0.00 51 1010.4
20260504234727 21 103 4.8 11.3 0.00 0.00 0.00 49 1010.5
20260504234227 21 100 1.6 8.0 0.00 0.00 0.00 49 1010.4
20260504233726 21 109 1.6 4.8 0.00 0.00 0.00 47 1010.3
20260504233226 21 100 1.6 3.2 0.00 0.00 0.00 46 1010.4
20260504232726 21 100 3.2 9.7 0.00 0.00 0.00 46 1010.3
20260504232226 21 129 1.6 3.2 0.00 0.00 0.00 46 1010.3
20260504231726 22 110 1.6 4.8 0.00 0.00 0.00 46 1010.3
20260504231226 22 90 3.2 8.0 0.00 0.00 0.00 46 1010.4
20260504230725 22 113 1.6 4.8 0.00 0.00 0.00 47 1010.3
20260504230225 22 93 3.2 4.8 0.00 0.00 0.00 48 1010.3
20260504225725 22 105 3.2 14.5 0.00 0.00 0.00 47 1010.3
20260504225225 22 102 4.8 8.0 0.00 0.00 0.00 47 1010.3
20260504224725 22 219 1.6 9.7 0.00 0.00 0.00 46 1010.3
20260504224225 22 71 8.0 12.9 0.00 0.00 0.00 46 1010.2
20260504223725 23 224 3.2 4.8 0.00 0.00 0.00 46 1010.2
20260504223224 23 81 3.2 8.0 0.00 0.00 0.00 47 1010.2
20260504222724 23 74 3.2 8.0 0.00 0.00 0.00 45 1010.3
20260504222224 23 90 3.2 8.0 0.00 0.00 0.00 47 1010.3
20260504221724 23 139 3.2 4.8 0.00 0.00 0.00 45 1010.1
20260504221224 23 95 1.6 3.2 0.00 0.00 0.00 47 1010.2
20260504220724 23 108 3.2 8.0 0.00 0.00 0.00 45 1010.2
20260504220224 23 112 3.2 8.0 0.00 0.00 0.00 44 1010.2
20260504215723 23 116 1.6 4.8 0.00 0.00 0.00 45 1010.2
20260504215223 23 97 1.6 4.8 0.00 0.00 0.00 45 1010.3
20260504214723 23 99 3.2 11.3 0.00 0.00 0.00 44 1010.3
20260504214223 23 125 3.2 9.7 0.00 0.00 0.00 43 1010.2
20260504213723 23 259 3.2 9.7 0.00 0.00 0.00 42 1010.3
20260504213223 23 146 3.2 11.3 0.00 0.00 0.00 43 1010.3
20260504212722 23 93 1.6 4.8 0.00 0.00 0.00 43 1010.3
20260504212222 23 89 1.6 8.0 0.00 0.00 0.00 44 1010.3
20260504211722 23 91 4.8 4.8 0.00 0.00 0.00 43 1010.4
20260504211222 23 105 3.2 8.0 0.00 0.00 0.00 44 1010.4
20260504210722 23 226 3.2 8.0 0.00 0.00 0.00 43 1010.5
20260504210222 23 122 3.2 8.0 0.00 0.00 0.00 43 1010.5
20260504205722 23 276 3.2 4.8 0.00 0.00 0.00 42 1010.5
20260504205221 23 90 1.6 4.8 0.00 0.00 0.00 43 1010.5
20260504204721 23 213 3.2 14.5 0.00 0.00 0.00 43 1010.5
20260504204221 23 250 3.2 8.0 0.00 0.00 0.00 42 1010.6
20260504203721 23 108 4.8 8.0 0.00 0.00 0.00 42 1010.6
20260504203221 23 143 3.2 9.7 0.00 0.00 0.00 42 1010.7
20260504202721 23 101 4.8 8.0 0.00 0.00 0.00 41 1010.8
20260504202220 23 103 4.8 8.0 0.00 0.00 0.00 42 1011.0
20260504201720 23 144 4.8 12.9 0.00 0.00 0.00 42 1011.0
20260504201220 23 103 4.8 4.8 0.00 0.00 0.00 42 1011.1
20260504200720 23 153 3.2 8.0 0.00 0.00 0.00 41 1011.1
20260504200220 23 176 1.6 11.3 0.00 0.00 0.00 42 1011.2
20260504195720 23 161 3.2 4.8 0.00 0.00 0.00 43 1011.2
20260504195220 23 198 1.6 4.8 0.00 0.00 0.00 42 1011.3